Hourly Data Report for October 20, 2021

OTTAWA INTL A
ONTARIO
Current Station Operator: NAVCAN

45°19'00.000" N
75°40'00.000" W
114.90 m
6106001
71628
YOW

Download Data

Hourly Data (October 2021)
Hourly Data Report for October 20, 2021
TIME
LST
Temp Definition
°C
Dew Point Definition
°C
Rel Hum Definition
%
Precip. Amount Definition
mm

Wind Dir Definition
10's deg

Wind Spd Definition
km/h
Visibility Definition
km
Stn Press Definition
kPa
Hmdx Definition


Wind Chill Definition


Weather Definition


00:00 8.9 6.5 85   22 8 24.1 99.69     LegendNANA
01:00 8.6 6.7 88   22 9 24.1 99.69     Clear
02:00 7.5 6.5 93   25 13 24.1 99.71     LegendNANA
03:00 6.9 6.2 95   24 9 24.1 99.76     LegendNANA
04:00 7.8 7.1 96   25 5 24.1 99.79     Clear
05:00 8.4 7.6 95   26 8 24.1 99.84     LegendNANA
06:00 9.4 8.3 93   29 13 24.1 99.86     LegendNANA
07:00 10.2 9.0 92   29 10 24.1 99.91     Mostly Cloudy
08:00 11.9 10.2 89   28 9 24.1 99.97     LegendNANA
09:00 13.9 10.4 80   30 12 24.1 100.00     LegendNANA
10:00 15.5 10.6 73   27 11 24.1 100.00     Clear
11:00 16.7 10.4 66   28 8 24.1 100.00     LegendNANA
12:00 18.0 10.3 61   30 8 24.1 99.95     LegendNANA
13:00 19.1 11.2 60   33 12 24.1 99.89     Mainly Clear
14:00
15:00 19.8 10.7 56   32 13 24.1 99.85     LegendNANA
16:00 18.4 10.8 61   32 13 24.1 99.85     Mostly Cloudy
17:00 17.3 9.8 61   23 5 24.1 99.84     LegendNANA
18:00 16.5 9.7 64   28 8 24.1 99.90     LegendNANA
19:00 14.9 9.8 71   23 5 24.1 99.92     Mostly Cloudy
20:00 14.3 9.9 75   18 3 24.1 99.90     LegendNANA
21:00 13.5 10.5 82   21 7 24.1 99.91     LegendNANA
22:00 13.0 10.4 84   24 4 24.1 99.92     Mostly Cloudy
23:00 11.4 9.9 90   26 10 24.1 99.91     LegendNANA

Notes on Data Quality.

Legend

  • E = Estimated
  • M = Missing
  • NA = Not Available*
  • [empty] = Indicates an unobserved value
Date modified: